Voltar ao catálogo

SCOUT A DEB

AtivoPO
NORAD 2989·DEBRIS·🇺🇸 United States

Lançado Jan 28, 1966 de Vandenberg Space Force Base

Loading…

Próximas Passagens (próximas 24 horas)

TLE

AtualizadoSource: Space-Track

Época: Sep 13, 2026, 11:59 UTC

1 02989U 66005F   26256.49975458  .00000312  00000-0  19251-3 0  9994
2 02989  89.6552 280.9644 0107182 335.2936  24.3130 14.00727384  9354

Acompanhe SCOUT A DEB em tempo real com AllMySat

Download on the App Store